Weather History for Middletown, PA

Change the Weather History Date:

Thursday, July 11, 2013

  Actual Average Record
Temperature  
Mean Temperature 79 °F 76 °F  
Max Temperature 85 °F 86 °F 100 °F (1936)
Min Temperature 72 °F 66 °F 53 °F (1983)
Degree Days  
Heating Degree Days 0 0  
Month to date heating degree days 0 0  
Since 1 June heating degree days 2 18  
Since 1 July heating degree days 0 0  
Cooling Degree Days 14 11  
Month to date cooling degree days 155 119  
Year to date cooling degree days 462 397  
Since 1 June cooling degree days 379 332  
Growing Degree Days 28 (Base 50)    
Moisture  
Dew Point 64 °F    
Average Humidity 66    
Maximum Humidity 84    
Minimum Humidity 47    
Precipitation  
Precipitation 0.00 in 0.15 in 1.40 in (1920)
Month to date precipitation 1.40 1.61  
Year to date precipitation 17.33 20.74  
Sea Level Pressure  
Sea Level Pressure 29.89 in    
Wind  
Wind Speed 7 mph (WNW)    
Max Wind Speed 17 mph    
Max Gust Speed 22 mph    
Visibility 10 miles    
Events      
T = Trace of Precipitation, MM = Missing Value Source: NWS Daily Summary

Daily Weather History Graph

Daily Weather History Graph

Search for Another Location

Airport:

Trip Planner

Search our weather history database for the weather conditions in past years. The results will help you decide how hot, cold, wet, or windy it might be!

Date:

Astronomy

Jul. 11, 2013 Rise Set
Actual Time 5:47 AM EDT 8:37 PM EDT
Civil Twilight 5:15 AM EDT 9:09 PM EDT
Nautical Twilight 4:34 AM EDT 9:50 PM EDT
Astronomical Twilight 3:47 AM EDT 10:36 PM EDT
Moon 9:04 AM EDT (7/11) 10:16 PM EDT (7/11)
Length of Visible Light 15h 54m
Length of Day
14h 49m
Waxing Crescent, 10% of the Moon is Illuminated
Jul 11
Waxing Crescent
Jul 15
First Quarter
Jul 22
Full
Jul 29
Last Quarter
Aug 6
New

Hourly Weather History & Observations

Time (EDT) Temp. Heat Index Dew Point Humidity Pressure Visibility Wind Dir Wind Speed Gust Speed Precip Events Conditions
12:56 AM 78.1 °F - 71.1 °F 79% 29.82 in 10.0 mi SSW 9.2 mph - N/A   Overcast
1:56 AM 77.0 °F - 70.0 °F 79% 29.83 in 10.0 mi SW 11.5 mph - N/A   Overcast
2:56 AM 75.9 °F - 70.0 °F 82% 29.84 in 10.0 mi SW 5.8 mph - N/A   Overcast
3:56 AM 75.0 °F - 66.9 °F 76% 29.84 in 10.0 mi Variable 3.5 mph - N/A   Overcast
4:56 AM 73.0 °F - 68.0 °F 84% 29.85 in 10.0 mi WNW 9.2 mph - N/A   Overcast
5:56 AM 73.0 °F - 66.9 °F 81% 29.86 in 10.0 mi WNW 5.8 mph - N/A   Mostly Cloudy
6:56 AM 73.0 °F - 64.9 °F 76% 29.88 in 10.0 mi NNW 4.6 mph - N/A   Clear
7:56 AM 73.0 °F - 64.0 °F 73% 29.90 in 10.0 mi NNW 11.5 mph 19.6 mph N/A   Mostly Cloudy
8:56 AM 75.0 °F - 64.0 °F 69% 29.91 in 10.0 mi NW 15.0 mph 20.7 mph N/A   Partly Cloudy
9:56 AM 75.9 °F - 64.0 °F 67% 29.93 in 10.0 mi NNW 5.8 mph - N/A   Mostly Cloudy
10:56 AM 79.0 °F - 64.0 °F 60% 29.91 in 10.0 mi Variable 6.9 mph - N/A   Mostly Cloudy
11:56 AM 81.0 °F 82.7 °F 64.9 °F 58% 29.91 in 10.0 mi West 6.9 mph - N/A   Mostly Cloudy
12:56 PM 81.0 °F 82.7 °F 64.9 °F 58% 29.91 in 10.0 mi West 9.2 mph - N/A   Scattered Clouds
1:56 PM 82.9 °F 85.0 °F 66.0 °F 56% 29.89 in 10.0 mi West 8.1 mph - N/A   Mostly Cloudy
2:56 PM 82.9 °F 84.6 °F 64.9 °F 54% 29.88 in 10.0 mi WNW 8.1 mph - N/A   Mostly Cloudy
3:56 PM 84.0 °F 85.4 °F 64.0 °F 51% 29.88 in 10.0 mi WNW 11.5 mph - N/A   Mostly Cloudy
4:56 PM 82.9 °F 83.3 °F 61.0 °F 47% 29.88 in 10.0 mi NW 11.5 mph - N/A   Mostly Cloudy
5:56 PM 82.9 °F 83.2 °F 60.1 °F 46% 29.88 in 10.0 mi NNW 9.2 mph - N/A   Mostly Cloudy
6:56 PM 81.0 °F 81.3 °F 59.0 °F 47% 29.90 in 10.0 mi NNW 8.1 mph - N/A   Mostly Cloudy
7:56 PM 79.0 °F - 59.0 °F 50% 29.91 in 10.0 mi NNW 5.8 mph - N/A   Mostly Cloudy
8:56 PM 75.9 °F - 63.0 °F 64% 29.91 in 10.0 mi Calm Calm - N/A   Mostly Cloudy
9:56 PM 75.0 °F - 61.0 °F 62% 29.92 in 10.0 mi Calm Calm - N/A   Mostly Cloudy
10:56 PM 75.0 °F - 60.1 °F 60% 29.93 in 10.0 mi Calm Calm - N/A   Mostly Cloudy
11:56 PM 73.0 °F - 61.0 °F 66% 29.92 in 10.0 mi Calm Calm - N/A   Overcast